www.pogodaiklimat.ru

Погода и климат >> Архив погоды >> Индонезия >> Пеканбару


ПОГОДА в Пеканбару

  • Прогноз погоды в Пеканбару
  • Монитор погоды в Пеканбару

АРХИВ ПОГОДЫ в Пеканбару

Время (UTC), дата Ветер
(напр.,м/с)
 
Видим.   Явления Облачность Т
(С)
Тd
(С)
f
(%)
Тe
(С)
Тes
(С)
Комфортность P
(гПа)
Po
(гПа)
Тmin
(С)
Tmax
(С)
R
(мм)
R24
(мм)
S
(см)
09 12.08 ЮВ 3 10 км 8/3 450 м
[Cu med, cong Ac trans Ci sp]
+33.3 +22.9 55 +44 +46 опасность
перегрева
1006.3 1002.5
12 12.08 штиль 0 7000 м 6/1 500 м
[Sc Ac trans Ci sp]
+30.1 +23.6 68 +41 +41 опасность
перегрева
1007.0 1003.3 +33.5
15 12.08 штиль 0 7000 м 6/0
[Ci sp]
+27.4 +24.7 85 +39 +39 очень
душно
1008.7 1005.0
18 12.08 штиль 0 6000 м 9/4 450 м
[Sc Ac trans Ci sp]
+28.3 +24.4 79 +40 +40 очень
душно
1009.1 1005.4
21 12.08 штиль 0 6000 м 9/4 450 м
[Sc Ac trans Ci sp]
+26.7 +24.1 86 +37 +37 очень
душно
1008.2 1004.5
00 13.08 штиль 0 5000 м дым 9/6 420 м
[Sc Ac trans Ci sp]
+26.6 +24.6 89 +38 +38 очень
душно
1009.9 1006.2 +24.9 3
03 13.08 ЮВ 5 8000 м 9/5 400 м
[Sc Ac trans Ci sp]
+30.2 +23.6 68 +41 +43 опасность
перегрева
1011.2 1007.5
06 13.08 Ю 5 8000 м 9/5 420 м
[Cu med, cong Ac trans Ci sp]
+32.0 +23.2 60 +43 +46 опасность
перегрева
1009.4 1005.7
09 13.08 ЮВ 3 10 км 6/4 450 м
[Cu med, cong Ci sp]
+33.4 +22.1 52 +42 +46 опасность
перегрева
1007.4 1003.7
12 13.08 штиль 0 8000 м 6/0
[Ci sp]
+29.8 +24.4 73 +42 +42 опасность
перегрева
1008.0 1004.3 +33.4
15 13.08 штиль 0 5000 м дым 8/1 500 м
[Sc As op Ci sp]
+28.9 +23.7 74 +40 +40 очень
душно
1010.2 1006.5
18 13.08 штиль 0 6000 м 8/1 480 м
[Sc Ac trans Ci sp]
+26.9 +25.0 89 +39 +39 очень
душно
1009.3 1005.6
21 13.08 штиль 0 5000 м дым 8/1 450 м
[Sc As op Ci sp]
+25.9 +24.1 90 +36 +36 очень
душно
1008.9 1005.2
00 14.08 Ю 3 3000 м дым 9/6 400 м
[Cu med, cong Ac trans Ci sp]
+26.1 +24.2 89 +36 +36 очень
душно
1010.5 1006.8 +25.2
03 14.08 ЮВ 4 5000 м дым 9/6 400 м
[Cu med, cong Ac trans Ci sp]
+29.4 +24.8 76 +42 +45 опасность
перегрева
1012.2 1008.5
06 14.08 Ю 4 5000 м дым 9/5 450 м
[Cu med, cong Ac trans Ci sp]
+32.0 +23.6 61 +43 +48 опасность
перегрева
1009.6 1005.9
09 14.08 Ю 6 8000 м 9/4 450 м
[Sc Ac trans Ci sp]
+33.3 +22.9 55 +44 +45 опасность
перегрева
1007.1 1003.4
12 14.08 штиль 0 6000 м 8/3 500 м
[Sc Ac trans Ci sp]
+29.3 +24.4 75 +41 +41 опасность
перегрева
1008.6 1004.9 +34.0
15 14.08 СВ 3 4000 м дым 8/3 500 м
[Sc Ac trans Ci sp]
+28.0 +25.0 84 +40 +40 очень
душно
1011.0 1007.3
18 14.08 штиль 0 4000 м дым 8/3 450 м
[Sc Ac trans Ci sp]
+26.6 +24.4 88 +37 +37 очень
душно
1011.1 1007.4
21 14.08 штиль 0 8000 м 8/3 360 м
[Sc Ac trans Ci sp]
+25.3 +22.6 85 +33 +33 очень
душно
1010.4 1006.7
00 15.08 штиль 0 8000 м 8/3 450 м
[Sc Ac trans Ci sp]
+25.0 +23.1 89 +33 +34 очень
душно
1011.7 1008.0 +24.7
03 15.08 штиль 0 8000 м 10/5 500 м
[Sc Ac As Ci sp]
+28.2 +22.6 72 +37 +42 очень
душно
1013.2 1009.5
06 15.08 В 4 8000 м 10/5 500 м
[Sc Ac As Ci sp]
+28.4 +24.1 78 +40 +43 очень
душно
1011.4 1007.6
09 15.08 В 3 8000 м 8/3 450 м
[Cu med, cong Ac trans Ci sp]
+31.3 +23.4 63 +42 +45 опасность
перегрева
1008.7 1005.0
12 15.08 С 2 7000 м 8/3 450 м
[Sc Ac trans Ci sp]
+29.1 +24.2 75 +41 +41 опасность
перегрева
1009.0 1005.3 +31.7
15 15.08 штиль 0 6000 м 6/1 500 м
[Sc Ac trans Ci sp]
+27.0 +24.6 87 +38 +38 очень
душно
1010.9 1007.2
18 15.08 штиль 0 4000 м мгла 8/3 500 м
[Sc Ac trans Ci sp]
+26.0 +24.8 93 +37 +37 очень
душно
1010.3 1006.6
21 15.08 штиль 0 5000 м мгла 10/4 450 м
[Sc Ac trans Ci sp]
+25.8 +24.4 92 +36 +36 очень
душно
1009.3 1005.6
00 16.08 Ю 3 3000 м слаб. дождь 10/9 270 м
[Sc Ac As]
+23.9 +23.6 98 +32 +32 очень
душно
1011.4 1007.7 +23.2 15
03 16.08 штиль 0 7000 м {дождь} 10/5 300 м
[Sc As op Cs]
+26.7 +24.4 87 +37 +42 очень
душно
1012.8 1009.1 0.2
06 16.08 Ю 3 9000 м {дождь} 9/4 360 м
[Cu med, cong As op Cs]
+30.3 +23.0 65 +40 +46 очень
душно
1010.4 1006.7 0.2
09 16.08 Ю 3 7000 м 9/3 450 м
[Cu med, cong As op Cs]
+30.7 +23.8 67 +42 +44 опасность
перегрева
1008.3 1004.6
12 16.08 ЮЗ 3 7000 м 8/3 500 м
[Sc As op Ci sp]
+29.0 +24.2 75 +40 +40 очень
душно
1009.0 1005.3 +31.6
15 16.08 штиль 0 7000 м 8/3 450 м
[Sc Ac trans Ci sp]
+26.4 +25.0 92 +38 +38 очень
душно
1011.0 1007.3
18 16.08 штиль 0 5000 м мгла 6/0
[Ci sp]
+25.6 +24.5 94 +36 +36 очень
душно
1010.5 1006.8
21 16.08 штиль 0 4000 м мгла 8/3 450 м
[Sc Ac trans Ci sp]
+24.9 +24.2 96 +34 +34 очень
душно
1010.1 1006.4
00 17.08 штиль 0 3000 м мгла 8/1 450 м
[Sc Ac trans Ci sp]
+24.7 +24.0 96 +34 +34 очень
душно
1011.0 1007.3 +23.7 0.2
03 17.08 Ю 4 8000 м 8/3 400 м
[Sc Ac trans Ci sp]
+29.4 +23.7 71 +40 +45 очень
душно
1011.9 1008.2
06 17.08 Ю 4 10 км 5/5 450 м
[Cu med, cong Ac trans Ci sp]
+31.9 +23.3 60 +42 +49 опасность
перегрева
1009.3 1005.6
12 17.08 В 3 8000 м 8/3 500 м
[Sc Ac trans Ci sp]
+29.4 +24.0 73 +41 +41 опасность
перегрева
1008.4 1004.3 +34.0
15 17.08 штиль 0 7000 м 9/3 400 м
[Sc Ac trans Ci fib]
+28.0 +24.2 80 +39 +39 очень
душно
1009.9 1006.1
18 17.08 штиль 0 7000 м 9/3 400 м
[Sc Ac trans Ci sp]
+26.9 +24.5 87 +38 +38 очень
душно
1009.5 1005.8
21 17.08 штиль 0 7000 м 8/1 400 м
[Sc Ac trans Ci fib]
+25.2 +24.4 95 +35 +35 очень
душно
1009.1 1005.4
00 18.08 штиль 0 3000 м дым 9/5 400 м
[Sc Ac trans Ci sp]
+25.6 +24.6 94 +36 +36 очень
душно
1011.1 1007.3 +24.4
03 18.08 ЮВ 5 7000 м 9/4 400 м
[Sc Ac trans Ci sp]
+28.8 +24.0 75 +40 +42 очень
душно
1012.1 1008.4
06 18.08 ЮВ 4 8000 м 9/4 420 м
[Cu med, cong Ac trans Ci sp]
+31.7 +23.2 61 +42 +48 опасность
перегрева
1010.0 1006.3
09 18.08 ЮВ 3 8000 м 9/3 450 м
[Cu med, cong Ac As Ci sp]
+32.7 +22.0 53 +41 +44 опасность
перегрева
1007.7 1003.9
12 18.08 штиль 0 7000 м 8/3 500 м
[Sc Ac trans Ci sp]
+30.4 +23.3 66 +41 +41 опасность
перегрева
1008.6 1004.9 +33.5
15 18.08 штиль 0 6000 м 8/4 400 м
[Sc Ac trans Ci fib]
+27.8 +23.0 75 +37 +37 очень
душно
1010.7 1006.8
18 18.08 штиль 0 6000 м 9/3 400 м
[Sc Ac trans Ci fib]
+25.4 +20.7 75 +32 +32 очень
душно
1010.8 1007.1
21 18.08 штиль 0 6000 м 8/1 400 м
[Sc Ac trans Ci fib]
+24.0 +21.5 86 +31 +31 очень
душно
1010.5 1006.8
00 19.08 штиль 0 7000 м 9/4 400 м
[Sc Ac trans Ci sp]
+24.2 +21.6 85 +31 +31 очень
душно
1011.5 1007.8 +23.7
03 19.08 Ю 5 8000 м 9/4 450 м
[Cu med, cong Ac trans Ci sp]
+28.8 +21.8 66 +37 +40 очень
душно
1012.6 1008.9
06 19.08 ЮВ 4 8000 м 9/5 400 м
[Cu med, cong Ac trans Ci sp]
+31.7 +21.3 54 +39 +44 очень
душно
1009.6 1005.9

 

Местоположение метеостанции Пеканбару (Индонезия): широта 0.47 долгота 101.45 высота над уровнем моря 31 м.

В архиве по умолчанию представлена погода в Пеканбару за последнюю неделю. Архивные данные за месяц целиком и за предыдущие месяцы, начиная с января 2011 года, Вы можете получить, выбрав интересующий диапазон дат из раскрывающегося списка и нажав кнопку "Ввод!".


*Определитесь, кто Вы:
робот инопланетянин человек

Внимание! Время в таблицах - всемирное. Для получения местного времени необходимо прибавить поправку, которая равна 7 ч.

Смотрите также архив погоды в соседних городах и на ближайших метеорологических станциях:

Погода в Аэропорту Япура (Индонезия) (131 км)
Погода в Паданге (Индонезия) (194 км)
Погода в Малакке (Малайзия) (219 км)
Погода в Куала-Лумпур аэропорту (Малайзия) (252 км)
Погода в Аэропорту Сеная (Малайзия) (279 км)
Погода в Куала-Лумпуре (Малайзия) (295 км)
Погода в Сингапуре (Сингапур) (299 км)
Погода в Аэропорту Ханга Надима (Индонезия) (305 км)
Погода в Сиболге (Индонезия) (310 км)
Погода в Джамби (Индонезия) (338 км)

Пояснения к столбцам:

Ветер - указаны скорость ветра в м/с - средняя за 10 мин, порывы в срок и между сроками (в фигурных скобках) и направление, откуда дует ветер: С - северный, СВ - северо-восточный, В - восточный, ЮВ - юго-восточный, Ю - южный, ЮЗ - юго-западный, З - западный, СЗ - северо-западный.
Видимость - горизонтальная дальность видимости в метрах или километрах. При видимости от 1 до 10 км при отсутствии осадков обычно наблюдается дымка, при ухудшении видимости до 1 км и менее - туман. В сухую погоду видимость может ухудшаться дымом, пылью или мглою.
Явления - указаны атмосферные явления, наблюдавшиеся в срок или в последний час перед сроком; фигурными скобками обозначены явления, наблюдавшиеся между сроками (за 1-3 часа до срока); квадратными скобками обозначены град или гололедные отложения с указанием их диаметра в мм.
Облачность - указаны через наклонную черту общая и нижняя облачность в баллах и высота нижней границы облаков в метрах; квадратными скобками обозначены формы облаков: Ci - перистые, Cs - перисто-слоистые, Cc - перисто-кучевые, Ac - высококучевые, As - высокослоистые, Sc - слоисто-кучевые, Ns - слоисто-дождевые, Cu - кучевые, Cb - кучево-дождевые. Подробнее классификацию облаков см. в Атласе облаков (PDF).
T - Температура воздуха - температура, измеренная на высоте 2 м над землей.
Td - Температура точки росы - температура, при понижении до которой содержащийся в воздухе водяной пар достигнет насыщения.
f - Относительная влажность воздуха - влажноcть воздуха, измеренная на высоте 2 м над землей.
Te - Эффективная температура - температура, которую ощущает одетый по сезону человек в тени. Характеристика душности погоды. При расчете учитывается влияние влажности воздуха и скорости ветра на теплоощущения человека.
Tes - Эффективная температура на солнце - температура, которую ощущает человек, с поправкой на солнечный нагрев. Характеристика знойности погоды. Зависит от высоты солнца над горизонтом, облачности и скорости ветра. Ночью, в пасмурную погоду, а также при ветре 12 м/с и более поправка равна нулю.
P - Атмосферное давление - приведенное к уровню моря атмосферное давление.
Po - Атмосферное давление - измеренное на уровне метеостанции атмосферное давление.
Tmin - Минимальная температура - минимум температуры воздуха на высоте 2 м над землей.
Tmax - Максимальная температура - максимум температуры воздуха на высоте 2 м над землей.
R - Количество осадков - Количество выпавших осадков за период времени, мм. При наведении курсора мыши на число - период времени, за который выпало указанное количество осадков.
R24 - Количество осадков - Количество выпавших осадков за 24 часа, мм.
S - Снежный покров - Высота снежного покрова, см. При наведении курсора мыши на число - состояние снежного покрова и степень покрытия местности в баллах.